Location: Rodanthe
(35.5920°N, 75.4670°W)
Time: 22:26:18
(UTC-05:00)

Daily predictions for brighter satellites

Satellite Brightness Start Highest point End
(mag) Time Altitude Azimuth Time Altitude Azimuth Time Altitude Azimuth
Cosmos 2219 3.9 17:06:56 10° NNW 17:12:28 62° WSW 17:18:00 10° S
SJ-12 4.1 17:10:04 10° S 17:14:11 82° WSW 17:18:18 10° NNW
Cosmos 372 Rocket 4.1 17:09:52 10° S 17:14:58 58° ESE 17:20:03 10° NNE
ALOS 3.9 17:13:19 10° E 17:15:38 14° ENE 17:17:56 10° NE
Cosmos 1980 Rocket 3.5 17:13:40 10° SSE 17:17:51 22° E 17:22:04 10° NE
Cosmos 389 Rocket 2.7 17:14:25 10° NNW 17:17:52 73° W 17:21:17 10° S
Meteor 2-9 Rocket 4.5 17:12:58 10° N 17:18:09 43° ENE 17:23:13 10° SSE
Cosmos 1271 Rocket 2.7 17:15:39 10° N 17:19:29 81° E 17:23:20 10° S
SJ-7 4.3 17:19:30 10° SSE 17:23:27 70° ENE 17:27:26 10° N
NOSS 3-2 (A) 4.4 17:16:42 10° NNW 17:23:52 42° NE 17:31:34 10° ESE
GOES 2 Rocket 4.5 17:20:50 10° WSW 17:24:37 32° S 17:28:47 10° ESE
Cosmos 1656 3.7 17:22:16 10° SSW 17:27:50 77° ESE 17:33:22 10° NNE
Cosmos 2297 Rocket 2.3 17:25:08 10° NNW 17:30:42 56° ENE 17:36:15 10° SE
Cosmos 1666 3.1 17:31:16 10° NNW 17:34:59 67° W 17:38:41 10° S
ATLAS 2AS CENTAUR R/B 4.2 17:28:15 10° WSW 17:35:27 40° NW 17:42:59 10° NNE
Cosmos 2266 Rocket 4.0 17:30:03 10° N 17:36:03 57° E 17:42:07 10° SSE
ATLAS 3B R/B 2.6 17:29:36 10° NNW 17:36:16 78° ENE 17:42:46 10° SE
Cosmos 1484 Rocket 3.0 17:32:46 10° S 17:36:47 83° W 17:40:49 10° NNW
Cosmos 1455 Rocket 3.4 17:36:55 10° NNW 17:41:18 68° W 17:45:37 10° S
Atlas Centaur 2 3.4 17:36:27 10° W 17:41:47 35° SSW 17:46:06 10° SE
OAO 1 Rocket 4.5 17:39:22 10° W 17:44:43 86° S 17:49:26 13° E
Cosmos 158 Rocket 3.9 17:40:36 10° NNW 17:45:40 89° ENE 17:50:34 10° SSE
Cosmos 1544 Rocket 4.4 17:41:27 10° NNW 17:45:42 54° W 17:49:54 10° S
USA 215 3.2 17:39:51 10° SE 17:46:19 69° NE 17:52:49 10° NW
DELTA 2 R/B (1) 3.8 17:41:00 10° WNW 17:46:29 59° N 17:51:00 15° E
USA 116 3.1 17:45:24 10° N 17:48:31 86° W 17:51:37 10° SSW
YAOGAN 1 2.6 17:44:28 10° SSE 17:48:40 56° ENE 17:52:55 10° N
IRS-1A Rocket 4.2 17:43:47 10° SSE 17:49:19 67° ENE 17:54:49 10° N
PSLV R/B 4.3 17:48:36 10° WNW 17:51:25 28° N 17:52:53 19° NE
MINOTAUR IV R/B 4.5 17:48:46 10° NNW 17:53:14 66° ENE 17:57:39 10° SSE
Lacrosse 5 rocket 3.5 17:52:13 10° SE 17:53:22 11° ESE 17:53:40 11° ESE
Meteor 2-4 Rocket 4.1 17:49:39 10° SSW 17:55:03 64° W 18:00:23 10° N
NOSS 3-4 (A) 3.5 17:50:29 10° SSW 17:56:41 88° ESE 18:02:56 11° NNE
NOSS 3-4 (C) 3.5 17:50:34 10° SSW 17:56:46 87° ESE 18:02:59 11° NNE
SL-16 R/B 3.7 17:57:23 10° SE 18:00:36 16° E 18:00:37 16° E
METEOR-M 4.0 17:55:48 10° SSE 18:01:05 71° ENE 18:06:26 10° N
FENGYUN 3A 3.9 17:57:12 10° SE 18:02:14 43° ENE 18:07:17 10° N
ISS -1.9 18:01:34 10° WNW 18:04:32 31° SW 18:07:28 10° SSE
NOSS 2-2 (D) 4.0 18:01:13 10° S 18:04:44 34° ESE 18:06:05 26° ENE
Cosmos 2322 Rocket 3.7 18:01:35 10° SE 18:04:44 16° ESE 18:04:44 16° ESE
Cosmos 724 4.2 17:59:23 10° NNW 18:05:12 89° WSW 18:11:02 10° SSE
RESURS DK-1 2.9 18:02:29 10° S 18:06:17 37° ESE 18:07:48 27° ENE
SJ 16-02 2.9 18:03:23 10° SW 18:07:24 35° WNW 18:11:28 10° N
COSMO-SKYMED 1 2.5 18:04:09 10° NNE 18:08:31 87° ESE 18:12:51 10° SSW
Cosmos 2360 4.3 18:03:55 10° S 18:09:29 58° ESE 18:13:53 17° NNE
CENTAUR R/B 3.7 18:08:33 10° NNW 18:15:33 32° NE 18:19:24 23° E
Hubble Space Telescope 3.4 18:15:18 10° WSW 18:17:50 16° SSW 18:20:21 10° SSE
DELTA 2 R/B (2) 4.1 18:16:39 10° WSW 18:19:23 84° NNW 18:20:08 51° ENE
Meteor 2-11 Rocket 4.4 18:13:20 10° S 18:19:29 85° E 18:25:39 10° N
Cosmos 1697 Rocket 3.3 18:14:23 10° SW 18:19:56 57° WNW 18:25:31 10° NNE
NOSS 2-2 (E) 3.3 18:16:24 10° SSW 18:20:13 64° ESE 18:21:38 37° NE
Cosmos 1515 4.2 18:17:25 10° SSW 18:21:08 59° W 18:24:54 10° N
CZ-4 R/B 3.2 18:21:12 10° SSW 18:24:39 31° W 18:28:11 10° NNW
EO 1 Del DPAF 3.5 18:22:11 13° N 18:25:29 69° WNW 18:29:15 10° SSW
NOSS 2-2 (C) 3.2 18:23:20 10° SSW 18:27:09 65° ESE 18:28:01 48° ENE
SPOT 3 Rocket 3.4 18:22:07 10° SSE 18:27:16 76° ENE 18:32:26 10° N
Shenzhou-11 Module 3.7 18:25:28 10° SSW 18:27:25 23° SSE 18:27:25 23° SSE
Cosmos 1553 Rocket 4.1 18:22:32 10° SSE 18:28:42 53° E 18:34:27 12° NNE
BREEZE-M DEB (TANK) 4.2 18:08:57 10° WNW 18:29:13 59° NNE 18:31:09 36° ENE
Cosmos 1025 Rocket 3.4 18:25:23 10° SSW 18:29:38 62° W 18:33:53 10° N
Cosmos 1417 Rocket 4.4 18:25:59 10° S 18:32:02 65° E 18:38:12 10° NNE
ERS-2 2.4 18:31:48 10° S 18:35:26 67° WSW 18:39:05 10° NNW
Okean 1-7 Rocket 3.7 18:31:28 10° SSW 18:35:50 74° W 18:39:23 16° N
Cosmos 494 Rocket 3.8 18:35:06 10° NNW 18:40:23 73° ENE 18:45:35 10° SSE
Thor Agena Rocket 3.7 18:40:38 47° E 18:41:08 48° E 18:46:13 10° S
Gblst 52 Del rocket 4.4 18:36:55 10° NW 18:42:34 58° NE 18:44:12 44° E
Cosmos 2251 Rocket 3.7 18:37:51 10° N 18:42:22 46° NE 18:42:22 46° NE
Cosmos 1745 Rocket 4.1 18:39:28 10° N 18:45:27 47° E 18:51:26 10° SSE
Cosmos 1184 Rocket 3.8 18:47:18 10° SSW 18:49:52 45° SW 18:49:52 45° SW
ALOS 3.0 18:48:01 10° S 18:52:34 53° W 18:57:08 10° NNW
FengYun 1-2 T 4.1 18:47:03 10° SSE 18:52:36 65° ENE 18:58:11 10° N
DNEPR-1 R/B 4.1 18:51:59 10° NNW 18:57:22 76° ENE 18:59:46 39° SE
Cosmos 1980 Rocket 3.2 18:56:04 10° SW 19:01:28 44° WNW 19:05:03 20° N
Cosmos 1606 Rocket 4.0 19:02:50 55° SSW 19:02:50 55° SSW 19:06:17 10° S
Cosmos 1066 Rocket 4.5 18:58:58 10° SSW 19:04:28 65° W 19:07:39 25° N
SL-8 R/B 3.8 19:00:43 10° WSW 19:05:15 73° WNW 19:05:15 73° WNW
Atlas Centaur 2 4.3 19:28:28 10° SW 19:29:43 11° SSW 19:30:51 10° SSW
Cosmos 2344 3.4 19:23:12 10° SSW 19:30:53 82° ESE 19:31:21 78° ENE
Lacrosse 5 rocket 3.5 19:27:47 10° SW 19:29:24 23° SW 19:29:24 23° SW
DELTA 2 R/B (1) 4.2 19:27:34 10° WNW 19:31:48 53° W 19:31:48 53° W
SL-16 R/B 3.1 19:38:30 10° SSW 19:42:32 44° WSW 19:42:32 44° WSW
Cosmos 2322 Rocket 3.3 19:42:57 10° SW 19:46:37 39° WSW 19:46:37 39° WSW
CENTAUR R/B 3.4 19:58:47 10° NW 20:06:43 64° WSW 20:06:43 64° WSW
